THORAD AGENA D DEB, 4682

Orbit data source: Space-Track

THORAD AGENA D DEB, 4682 is space debris in SSO originally from a launch on Wed, 08 Apr 1970 UTC launched from the Air Force Western Test Range (AFWTR). Debris objects in space refer to the collection of defunct objects orbiting the Earth. Examples of debris include non-operational satellites, rocket bodies, and fragments generated from explosions, collisions, or faulty payload assembly.

Loading next visibility...
Identifier
4682, 1970-025BF
Orbit
SSO
Country
Flag of USUS
Related business
Manufacturer
Unknown
Mission
Spacecraft
Bus & Motor
Unknown
Mass
Unknown
Launch date (UTC)
1970-04-08 (56 years ago)
Launch vehicle
Unknown
Launch site
Air Force Western Test Range (AFWTR)
Object type
Payload
Rocket body
Debris
Shape & HBR
Unknown shape, 0.2 m
Radar Cross Section
Medium (>0.1 m² and <1 m²)

Expand to show TLE details & history
Last TLE update: 23 hours ago

TLE from 23 hours ago
0 THORAD AGENA D DEB
1 04682U 70025BF  26236.51997343  .00000184  00000-0  49518-3 0  9997
2 04682  99.7382 243.8146 0144178 354.3995 157.0423 13.24557785717139
Epoch: 2026-08-24T12:28Z
TLE epoch observation values (Epoch: 2026-08-24T12:28:45.704Z)
Latitude
27.52636°
Longitude
-91.07071°
Altitude
1,271.017 km
Speed
7.174 km/s
True Right ascension
04h 35m 40s
True Declination
27° 23' 42"
Sunlit
Object was in daylight at epoch
Visualization orbit readout
Latitude
Unknown
Longitude
Unknown
Altitude
Unknown
Speed
Unknown
Apparent Right ascension
Unknown
Apparent Declination
Unknown
Sunlit
N/A
Visualization observer readout
Local Sidereal Time
02:28:12
Azimuth
Unknown
Elevation
Unknown
Doppler factor
Unknown
Orbital elements
Apogee altitude
1,273.449 km
Perigee altitude
1,055.946 km
Semi-major axis
7,542.834 km
Eccentricity
0.01442
Inclination
99.7382°
RAAN
243.8146°
Arg. of periapsis
354.3995°
True anomaly
157.67619°
Mean anomaly
157.0423°
Eccentric anomaly
157.36029°
Mean motion
3.31315 °/min
Orbital period
108.66 mins
BSTAR
0.00049518
Loading maneuver chart data...
Computing Atmospheric mass density...

Documentation

Showing up to 5 results
|